[[{"header":{"parameterUnit":"m.s-1","parameterCategory":1,"la1":30.2991,"la2":30.254,"lo1":-89.0895,"lo2":-89.0444,"dy":0.0017,"dx":0.0017,"nx":28,"ny":28,"refTime":"2024-07-20T21:00:00:Z","depth":0,"parameterNumber":2,"parameterNumberName":"U-component_of_WINDS"},"data":[0,0,0,0,0,0,0,0,0,0,0,0,0,0,0,0,0,0,0,0,0,0,0,0,0,0,0,0,0,0,0,0,0,0,0,0,0,0,0,0,0,0,0,0,0,0,0,0,0,0,0,0,0,0,0,0,0,0,0.493,0.4931,0,0.4979,0.498,0.498,0.4984,0.4983,0.4983,0.4982,0.5034,0.5036,0.5038,0,0,0,0,0,0,0,0,0,0,0,0,0,0.4841,0.4843,0.493,0.4931,0.4931,0.4979,0.498,0.498,0.4984,0.4983,0.4982,0.4982,0.5033,0.5036,0.5038,0,0,0,0,0,0,0,0,0,0,0,0,0,0.4884,0.4843,0.493,0.4939,0.494,0.4979,0.498,0.4981,0.4984,0.4983,0.4982,0.4981,0.5033,0.5035,0.5038,0.5072,0,0,0.5047,0.5048,0,0,0,0,0,0,0,0,0.4881,0.4887,0.4937,0.4938,0.494,0.4974,0.4967,0.5011,0.4984,0.4967,0.4982,0.4981,0.5015,0.5019,0.503,0.5075,0.5077,0.5047,0.5049,0.505,0.5051,0,0,0,0,0,0,0,0.4878,0.4885,0.495,0.4938,0.4939,0.4941,0.4946,0.4976,0.4995,0.4969,0.4969,0.4975,0.5016,0.5027,0.5031,0.5078,0.5047,0.5049,0.5051,0.5052,0.5151,0.5152,0,0,0,0,0,0,0.4874,0.4882,0.4948,0.4951,0.4908,0.4943,0.4949,0.4964,0.4995,0.4999,0.4975,0.4975,0.5023,0.5028,0.5033,0.5074,0.505,0.5053,0.5054,0.5151,0.5152,0.5153,0,0,0,0,0,0,0.4872,0.4879,0.4946,0.4917,0.4925,0.4945,0.4963,0.4966,0.4977,0.5,0.5004,0.4984,0.5023,0.5029,0.5062,0.5076,0.5054,0.5056,0.5149,0.5151,0.5152,0.5157,0,0,0,0,0,0,0.4869,0.4879,0.4891,0.4917,0.4927,0.4974,0.4964,0.4967,0.4982,0.4982,0.5009,0.5012,0.5022,0.5058,0.5065,0.508,0.5059,0.5148,0.515,0.5152,0.5156,0.5158,0.5161,0,0,0,0,0,0.4866,0.4891,0.4892,0.49,0.4943,0.4974,0.498,0.499,0.4983,0.4996,0.5011,0.5012,0.5074,0.5061,0.5069,0.5085,0.5147,0.515,0.5152,0.5154,0.5158,0.5161,0,0,0,0,0,0,0.4868,0.4895,0.4896,0.4931,0.495,0.4975,0.4992,0.4994,0.5016,0.5015,0.5028,0.5034,0.5066,0.5079,0.5065,0.5119,0.511,0.5114,0.5109,0.5113,0.5115,0.5111,0.5061,0,0,0,0,0,0.4872,0.4894,0.4917,0.4946,0.4955,0.4972,0.4986,0.4992,0.5013,0.5021,0.5038,0.5059,0.5083,0.5099,0.5122,0.5158,0.5163,0.5173,0.5175,0.5177,0.518,0.5199,0.5203,0.5159,0.5159,0.5159,0,0,0.4881,0.4899,0.4913,0.4947,0.4962,0.4985,0.4979,0.5004,0.5021,0.5026,0.5057,0.507,0.5094,0.5128,0.5144,0.514,0.5193,0.518,0.5181,0.5183,0.5202,0.5206,0.5209,0.5161,0.5161,0.516,0,0,0.491,0.4926,0.4951,0.4966,0.499,0.5001,0.5007,0.5032,0.504,0.5072,0.5075,0.5096,0.5138,0.5154,0.5168,0.5203,0.5204,0.521,0.5223,0.5242,0.5245,0.5248,0.526,0.5264,0.5213,0.5213,0.5213,0,0.4918,0.4953,0.4963,0.4988,0.5003,0.5007,0.5032,0.5047,0.5078,0.5088,0.5083,0.5134,0.5151,0.5188,0.5197,0.5208,0.5215,0.5207,0.5244,0.5247,0.525,0.5261,0.5266,0.5214,0.5214,0.5214,0.5214,0,0.4962,0.4986,0.5004,0.5032,0.5049,0.5074,0.5088,0.5104,0.5108,0.512,0.5152,0.5172,0.5199,0.5208,0.5214,0.5247,0.5243,0.5241,0.5232,0.5254,0.5265,0.527,0.5214,0.5214,0.5214,0.5214,0,0,0.4993,0.5026,0.5032,0.5045,0.5071,0.509,0.5116,0.5141,0.5154,0.5175,0.5196,0.5231,0.5229,0.5244,0.5252,0.5268,0.5293,0.5264,0.5264,0.5268,0.533,0.5331,0.5336,0.5295,0.5295,0.5296,0.5328,0,0.5024,0.5068,0.5078,0.5116,0.5138,0.5142,0.5164,0.5182,0.5194,0.5214,0.5227,0.5251,0.5247,0.5256,0.5272,0.5287,0.5306,0.5285,0.5314,0.5315,0.5307,0.5342,0.5343,0.5372,0.5332,0.5333,0.5333,0,0.5065,0.5086,0.5126,0.5149,0.5159,0.5178,0.5202,0.5222,0.5243,0.525,0.5268,0.5273,0.53,0.5289,0.5326,0.5311,0.5324,0.5333,0.5334,0.5337,0.5325,0.5344,0.5381,0.5385,0.534,0.534,0.5339,0,0.5083,0.5121,0.515,0.5161,0.5188,0.5202,0.5214,0.5234,0.5249,0.5271,0.528,0.5305,0.5318,0.5337,0.5349,0.5341,0.5384,0.5375,0.5391,0.5391,0.5399,0.5399,0.5438,0.5409,0.5409,0.5409,0.5409,0,0.5115,0.5139,0.5158,0.5175,0.5202,0.5214,0.524,0.5253,0.5271,0.5291,0.5297,0.5316,0.5331,0.5352,0.5361,0.539,0.5396,0.5403,0.5405,0.5402,0.5401,0.541,0.5408,0.541,0.541,0.541,0.5409,0,0.5139,0.5152,0.5183,0.5207,0.5213,0.5232,0.5252,0.527,0.5281,0.5307,0.5313,0.5331,0.5356,0.537,0.5402,0.5409,0.544,0.5442,0.5432,0.5433,0.5448,0.5446,0.5494,0.5501,0.5468,0.5468,0.5468,0,0.5158,0.5177,0.5202,0.5216,0.5228,0.525,0.5265,0.5277,0.5292,0.5318,0.5332,0.5357,0.5378,0.5418,0.5434,0.5458,0.546,0.5475,0.5464,0.546,0.5459,0.5458,0.5459,0.5477,0.5477,0.5477,0.5478,0,0.5192,0.5197,0.5218,0.5241,0.5259,0.5278,0.5296,0.5307,0.5322,0.5339,0.5365,0.5381,0.5413,0.5437,0.5463,0.5476,0.5479,0.5481,0.5486,0.5482,0.5476,0.5479,0.5437,0.548,0.548,0.5479,0.5479,0.5479,0.5213,0.523,0.525,0.5273,0.5288,0.5305,0.5322,0.5336,0.5357,0.5383,0.5389,0.5416,0.5437,0.5471,0.5485,0.5506,0.5503,0.551,0.5512,0.5513,0.5513,0.5473,0.5511,0.5511,0.5511,0.5511,0.5511,0,0.5246,0.5259,0.528,0.5306,0.5324,0.5325,0.5346,0.5361,0.5384,0.5403,0.5423,0.5452,0.5476,0.5494,0.5519,0.5532,0.5534,0.5538,0.5537,0.554,0.5515,0.5508,0.5536,0.5536,0.5536,0.5536,0.5536,0.5536,0.5265,0.5292,0.53,0.5335,0.5348,0.5374,0.5386,0.5402,0.5417,0.5448,0.5468,0.548,0.5498,0.5524,0.5546,0.5551,0.556,0.5563,0.5568,0.5544,0.5542,0.5539,0.5532,0.5565,0.5565,0.5591,0.5591,0.5592]},{"header":{"parameterUnit":"m.s-1","parameterCategory":1,"la1":30.2991,"la2":30.254,"lo1":-89.0895,"lo2":-89.0444,"dy":0.0017,"dx":0.0017,"nx":28,"ny":28,"refTime":"2024-07-20T21:00:00:Z","depth":0,"parameterNumber":3,"parameterNumberName":"V-component_of_WINDS"},"data":[0,0,0,0,0,0,0,0,0,0,0,0,0,0,0,0,0,0,0,0,0,0,0,0,0,0,0,0,0,0,0,0,0,0,0,0,0,0,0,0,0,0,0,0,0,0,0,0,0,0,0,0,0,0,0,0,0,0,4.6879,4.6878,0,4.6814,4.6814,4.6813,4.6776,4.6776,4.6776,4.6776,4.6701,4.6699,4.6697,0,0,0,0,0,0,0,0,0,0,0,0,0,4.6963,4.6961,4.6879,4.6878,4.6877,4.6814,4.6814,4.6813,4.6776,4.6776,4.6776,4.6776,4.6702,4.6699,4.6697,0,0,0,0,0,0,0,0,0,0,0,0,0,4.6915,4.6961,4.6879,4.6851,4.6848,4.6815,4.6814,4.6812,4.6776,4.6776,4.6776,4.6776,4.6702,4.67,4.6697,4.6683,0,0,4.6688,4.6687,0,0,0,0,0,0,0,0,4.6918,4.6912,4.6856,4.6853,4.685,4.6803,4.6816,4.6769,4.6776,4.6803,4.6776,4.6776,4.6735,4.6729,4.6717,4.6679,4.6676,4.6688,4.6686,4.6685,4.6684,0,0,0,0,0,0,0,4.6921,4.6914,4.6853,4.6855,4.6851,4.684,4.6833,4.6807,4.677,4.6801,4.6798,4.6792,4.6733,4.672,4.6715,4.6675,4.6688,4.6685,4.6684,4.6683,4.6622,4.6622,0,0,0,0,0,0,4.693,4.6917,4.6855,4.6851,4.6884,4.6839,4.6831,4.6818,4.6771,4.6763,4.6792,4.679,4.6725,4.6718,4.6712,4.6693,4.6685,4.6682,4.6681,4.6622,4.6622,4.6622,0,0,0,0,0,0,4.6932,4.6925,4.6857,4.6883,4.6874,4.6838,4.6823,4.6817,4.6804,4.6764,4.6756,4.6786,4.6724,4.6716,4.6691,4.669,4.6681,4.6678,4.6622,4.6622,4.6622,4.6654,0,0,0,0,0,0,4.6934,4.6925,4.6921,4.6884,4.6873,4.684,4.6823,4.6816,4.6801,4.6798,4.6756,4.6749,4.6724,4.6696,4.6688,4.6686,4.6676,4.6622,4.6622,4.6622,4.6653,4.6655,4.6657,0,0,0,0,0,4.6937,4.693,4.6921,4.6914,4.6867,4.684,4.6833,4.6807,4.6801,4.6795,4.6769,4.675,4.6692,4.6693,4.6685,4.6681,4.6622,4.6622,4.6622,4.6652,4.6655,4.6657,0,0,0,0,0,0,4.6965,4.6925,4.6914,4.6895,4.6872,4.6834,4.6826,4.681,4.6785,4.6783,4.6749,4.674,4.6718,4.6697,4.67,4.6665,4.6655,4.6653,4.668,4.6682,4.6684,4.6689,4.6674,0,0,0,0,0,4.697,4.6953,4.6918,4.6905,4.6894,4.6862,4.6849,4.6831,4.6804,4.6792,4.6765,4.6737,4.6712,4.6696,4.6671,4.665,4.664,4.6643,4.6646,4.6648,4.6646,4.6634,4.6635,4.6623,4.6623,4.6623,0,0,4.6977,4.6954,4.6945,4.691,4.6889,4.6871,4.6853,4.6834,4.682,4.6788,4.6764,4.6743,4.6709,4.6687,4.6675,4.6668,4.6648,4.6648,4.665,4.6647,4.6634,4.6636,4.6637,4.6623,4.6623,4.6623,0,0,4.6983,4.6964,4.6951,4.6932,4.6902,4.6882,4.6879,4.6844,4.6829,4.6805,4.6782,4.6763,4.6721,4.6698,4.6681,4.668,4.6662,4.6673,4.6683,4.6672,4.6673,4.6674,4.6673,4.6673,4.6672,4.6672,4.6672,0,4.6996,4.697,4.6946,4.6929,4.6914,4.6889,4.6875,4.6856,4.6819,4.6808,4.6802,4.675,4.6725,4.6697,4.6698,4.6685,4.6679,4.6677,4.6675,4.6676,4.6676,4.6675,4.6675,4.6673,4.6673,4.6673,4.6673,0,4.6987,4.6969,4.6962,4.6931,4.6915,4.6899,4.6871,4.6858,4.6842,4.6821,4.6797,4.6767,4.6736,4.6728,4.671,4.6697,4.6694,4.6682,4.6671,4.6679,4.6677,4.6677,4.6676,4.6675,4.6675,4.6674,0,0,4.7006,4.6964,4.6961,4.6947,4.6914,4.6898,4.6882,4.6855,4.6844,4.6819,4.6803,4.6769,4.6759,4.674,4.672,4.671,4.6711,4.6699,4.6697,4.6702,4.6695,4.6704,4.6704,4.67,4.6699,4.6699,4.6697,0,4.7006,4.6978,4.6956,4.6935,4.6918,4.6895,4.688,4.6857,4.6838,4.6819,4.6796,4.6773,4.6761,4.675,4.6739,4.6714,4.6709,4.6713,4.6682,4.6681,4.6691,4.6703,4.6712,4.6711,4.6697,4.6697,4.6697,0,4.7002,4.6982,4.696,4.693,4.6922,4.691,4.6884,4.6867,4.684,4.6826,4.6807,4.6787,4.6766,4.6758,4.6728,4.6732,4.6718,4.6703,4.6703,4.6698,4.6689,4.6697,4.6711,4.671,4.6695,4.6695,4.6696,0,4.7018,4.6985,4.6968,4.6957,4.6921,4.6913,4.6897,4.6871,4.6856,4.6833,4.6823,4.6796,4.6781,4.676,4.6733,4.673,4.6706,4.6695,4.6693,4.6693,4.6687,4.6688,4.6698,4.668,4.668,4.668,4.668,0,4.702,4.7007,4.6975,4.6965,4.695,4.6925,4.691,4.6892,4.6869,4.6853,4.683,4.6815,4.6781,4.6761,4.6739,4.6718,4.6711,4.6698,4.6692,4.67,4.6702,4.6689,4.6688,4.668,4.668,4.668,4.668,0,4.7034,4.7013,4.6993,4.6962,4.6954,4.6945,4.6917,4.6905,4.6886,4.6866,4.6859,4.6828,4.6804,4.6776,4.6741,4.6726,4.6707,4.6698,4.6717,4.6713,4.6712,4.6713,4.6714,4.6712,4.6697,4.6697,4.6697,0,4.7037,4.7027,4.6997,4.6986,4.6972,4.6955,4.6941,4.6916,4.6902,4.6872,4.6863,4.6838,4.6817,4.6779,4.6751,4.6725,4.6715,4.6718,4.671,4.6719,4.6714,4.6715,4.6714,4.6719,4.6719,4.6719,4.672,0,4.7043,4.7034,4.7016,4.6995,4.6981,4.6962,4.6942,4.6934,4.6905,4.689,4.6867,4.6851,4.6818,4.6792,4.6763,4.6744,4.6726,4.6723,4.672,4.6727,4.6738,4.6732,4.6721,4.6722,4.6722,4.6722,4.6721,4.6721,4.7051,4.7042,4.702,4.7001,4.6985,4.6967,4.6955,4.6936,4.6917,4.6891,4.6876,4.6853,4.6827,4.6786,4.6768,4.6748,4.6742,4.6739,4.6738,4.6737,4.674,4.6743,4.6743,4.6742,4.6742,4.6742,4.6742,0,4.7056,4.7042,4.7025,4.7,4.6985,4.6974,4.6952,4.694,4.6921,4.6899,4.688,4.6853,4.6829,4.6801,4.6775,4.6764,4.6755,4.6758,4.6758,4.6754,4.6747,4.6751,4.6766,4.6766,4.6766,4.6766,4.6766,4.6766,4.7057,4.7041,4.7029,4.7004,4.6989,4.6969,4.6958,4.6941,4.6924,4.6896,4.6878,4.6861,4.6836,4.6808,4.6785,4.6777,4.6768,4.6773,4.6762,4.6756,4.6754,4.6752,4.6756,4.6771,4.6771,4.6771,4.6771,4.6771]}]]